Voltar ao catálogo

HULIANWANG DIGUI-125

AtivoComunicaçõesLEO
NORAD 67065·PAYLOAD·🇨🇳 China

Lançado Dec 11, 2025 de Wenchang Space Launch Site

Loading…

Próximas Passagens (próximas 24 horas)

TLE

AtualizadoSource: Space-Track

Época: Sep 14, 2026, 11:52 UTC

1 67065U 25295G   26257.49466632 -.00000117  00000-0  14399-4 0  9999
2 67065  49.9988  64.9193 0000817  60.5282 299.5671 13.29325885 37380

Acompanhe HULIANWANG DIGUI-125 em tempo real com AllMySat

Download on the App Store